Time,TemperatureF,DewpointF,PressureIn,WindDirection,WindDirectionDegrees,WindSpeedMPH,WindSpeedGustMPH,Humidity,HourlyPrecipIn,Conditions,Clouds,dailyrainin,SoftwareType,DateUTC
2013-06-16 17:41:00,86.0,69.0,29.24,SW,225,3.0,0.0,57,0.00,CLR,OVC,0.00,WeatherDisplay:10.37,2013-06-16 21:41:00,
2013-06-16 17:46:00,85.0,68.6,29.24,WSW,247,3.5,3.5,58,0.00,CLR,OVC,0.00,WeatherDisplay:10.37,2013-06-16 21:46:00,
2013-06-16 17:51:00,85.0,68.6,29.24,North,360,2.0,2.0,58,0.00,CLR,OVC,0.00,WeatherDisplay:10.37,2013-06-16 21:51:00,
2013-06-16 17:56:00,85.0,69.6,29.24,NNE,22,2.3,2.3,60,0.00,CLR,OVC,0.00,WeatherDisplay:10.37,2013-06-16 21:56:00,
2013-06-16 18:01:00,85.0,68.6,29.24,West,270,0.0,0.0,58,0.00,CLR,OVC,0.00,WeatherDisplay:10.37,2013-06-16 22:01:00,
2013-06-16 18:06:00,83.0,67.2,29.24,West,270,3.5,3.5,59,0.00,CLR,OVC,0.00,WeatherDisplay:10.37,2013-06-16 22:06:00,
2013-06-16 18:11:00,83.0,68.6,29.24,NW,315,3.0,3.0,62,0.00,CLR,OVC,0.00,WeatherDisplay:10.37,2013-06-16 22:11:00,
2013-06-16 18:16:00,82.0,67.7,29.24,West,270,3.5,3.5,62,0.00,CLR,OVC,0.00,WeatherDisplay:10.37,2013-06-16 22:16:00,
2013-06-16 18:21:00,82.0,68.6,29.24,West,270,0.0,0.0,64,0.00,CLR,OVC,0.00,WeatherDisplay:10.37,2013-06-16 22:21:00,
2013-06-16 18:26:00,82.0,68.2,29.24,West,270,2.3,2.3,63,0.00,CLR,OVC,0.00,WeatherDisplay:10.37,2013-06-16 22:26:00,
2013-06-16 18:31:00,82.0,68.6,29.24,West,270,0.0,0.0,64,0.00,CLR,OVC,0.00,WeatherDisplay:10.37,2013-06-16 22:31:00,
2013-06-16 18:36:00,81.0,68.6,29.24,NNW,337,2.3,2.3,66,0.00,CLR,OVC,0.00,WeatherDisplay:10.37,2013-06-16 22:36:00,
2013-06-16 18:41:00,81.0,67.7,29.24,West,270,2.3,2.3,64,0.00,CLR,OVC,0.00,WeatherDisplay:10.37,2013-06-16 22:41:00,
2013-06-16 18:46:00,81.0,69.0,29.24,South,180,0.0,0.0,67,0.00,CLR,OVC,0.00,WeatherDisplay:10.37,2013-06-16 22:46:00,
2013-06-16 18:51:00,81.0,69.0,29.24,West,270,0.0,0.0,67,0.00,CLR,OVC,0.00,WeatherDisplay:10.37,2013-06-16 22:51:00,
2013-06-16 18:57:00,81.0,69.0,29.24,WSW,247,0.0,0.0,67,0.00,CLR,OVC,0.00,WeatherDisplay:10.37,2013-06-16 22:57:00,
2013-06-16 19:02:00,80.0,68.1,29.25,SSE,157,0.0,0.0,67,0.00,CLR,OVC,0.00,WeatherDisplay:10.37,2013-06-16 23:02:00,
2013-06-16 19:07:00,80.0,68.9,29.25,North,360,0.0,0.0,69,0.00,CLR,OVC,0.00,WeatherDisplay:10.37,2013-06-16 23:07:00,
2013-06-16 19:12:00,80.0,69.3,29.25,ESE,112,2.0,0.0,70,0.00,CLR,OVC,0.00,WeatherDisplay:10.37,2013-06-16 23:12:00,
2013-06-16 19:17:00,79.0,69.2,29.25,SW,225,0.0,0.0,72,0.00,CLR,OVC,0.00,WeatherDisplay:10.37,2013-06-16 23:17:00,
2013-06-16 19:22:00,79.0,69.2,29.25,NW,315,0.0,0.0,72,0.00,CLR,OVC,0.00,WeatherDisplay:10.37,2013-06-16 23:22:00,
2013-06-16 19:27:00,79.0,70.0,29.25,NW,315,0.0,0.0,74,0.00,CLR,OVC,0.00,WeatherDisplay:10.37,2013-06-16 23:27:00,
2013-06-16 19:32:00,79.0,70.0,29.25,NNW,337,0.0,0.0,74,0.00,CLR,OVC,0.00,WeatherDisplay:10.37,2013-06-16 23:32:00,
2013-06-16 19:37:00,78.0,69.8,29.25,NNW,337,0.0,0.0,76,0.00,CLR,OVC,0.00,WeatherDisplay:10.37,2013-06-16 23:37:00,
2013-06-16 19:42:00,78.0,69.8,29.25,NNW,337,0.0,0.0,76,0.00,CLR,OVC,0.00,WeatherDisplay:10.37,2013-06-16 23:42:00,
2013-06-16 19:47:00,77.0,69.6,29.25,ENE,67,0.0,0.0,78,0.00,CLR,OVC,0.00,WeatherDisplay:10.37,2013-06-16 23:47:00,
2013-06-16 19:52:00,77.0,69.6,29.25,North,360,0.0,0.0,78,0.00,CLR,OVC,0.00,WeatherDisplay:10.37,2013-06-16 23:52:00,
2013-06-16 19:57:00,77.0,70.0,29.25,North,360,0.0,0.0,79,0.00,CLR,OVC,0.00,WeatherDisplay:10.37,2013-06-16 23:57:00,
2013-06-16 20:02:00,77.0,70.0,29.25,North,360,0.0,0.0,79,0.00,CLR,OVC,0.00,WeatherDisplay:10.37,2013-06-17 00:02:00,
2013-06-16 20:07:00,76.0,69.7,29.25,North,360,0.0,0.0,81,0.00,CLR,OVC,0.00,WeatherDisplay:10.37,2013-06-17 00:07:00,
2013-06-16 20:12:00,76.0,69.7,29.26,North,360,0.0,0.0,81,0.00,CLR,OVC,0.00,WeatherDisplay:10.37,2013-06-17 00:12:00,
2013-06-16 20:17:00,76.0,70.5,29.26,North,360,0.0,0.0,83,0.00,CLR,OVC,0.00,WeatherDisplay:10.37,2013-06-17 00:17:00,
2013-06-16 20:22:00,76.0,71.2,29.25,North,360,0.0,0.0,85,0.00,CLR,OVC,0.00,WeatherDisplay:10.37,2013-06-17 00:22:00,
2013-06-16 20:27:00,76.0,70.8,29.25,North,360,0.0,0.0,84,0.00,CLR,OVC,0.00,WeatherDisplay:10.37,2013-06-17 00:27:00,
2013-06-16 20:32:00,75.0,70.2,29.25,North,360,0.0,0.0,85,0.00,CLR,OVC,0.00,WeatherDisplay:10.37,2013-06-17 00:32:00,
2013-06-16 20:37:00,75.0,70.2,29.25,North,360,0.0,0.0,85,0.00,CLR,OVC,0.00,WeatherDisplay:10.37,2013-06-17 00:37:00,
2013-06-16 20:42:00,75.0,70.5,29.25,North,360,0.0,0.0,86,0.00,CLR,OVC,0.00,WeatherDisplay:10.37,2013-06-17 00:42:00,
2013-06-16 20:47:00,75.0,70.9,29.25,North,360,0.0,0.0,87,0.00,CLR,OVC,0.00,WeatherDisplay:10.37,2013-06-17 00:47:00,
2013-06-16 20:52:00,75.0,70.9,29.25,North,360,0.0,0.0,87,0.00,CLR,OVC,0.00,WeatherDisplay:10.37,2013-06-17 00:52:00,
2013-06-16 20:57:00,74.0,70.6,29.25,North,360,0.0,0.0,89,0.00,CLR,OVC,0.00,WeatherDisplay:10.37,2013-06-17 00:57:00,
2013-06-16 21:02:00,74.0,70.2,29.26,North,360,0.0,0.0,88,0.00,CLR,OVC,0.00,WeatherDisplay:10.37,2013-06-17 01:02:00,
2013-06-16 21:07:00,74.0,70.6,29.26,NNW,337,0.0,0.0,89,0.00,CLR,OVC,0.00,WeatherDisplay:10.37,2013-06-17 01:07:00,
2013-06-16 21:13:00,74.0,70.6,29.26,NNW,337,0.0,0.0,89,0.00,CLR,OVC,0.00,WeatherDisplay:10.37,2013-06-17 01:13:00,
2013-06-16 21:18:00,74.0,71.2,29.26,NNW,337,0.0,0.0,91,0.00,CLR,OVC,0.00,WeatherDisplay:10.37,2013-06-17 01:18:00,
2013-06-16 21:23:00,74.0,71.2,29.26,NNW,337,0.0,0.0,91,0.00,CLR,OVC,0.00,WeatherDisplay:10.37,2013-06-17 01:23:00,
2013-06-16 21:28:00,73.0,70.2,29.26,NNW,337,0.0,0.0,91,0.00,CLR,OVC,0.00,WeatherDisplay:10.37,2013-06-17 01:28:00,
2013-06-16 21:33:00,73.0,70.5,29.26,NNW,337,0.0,0.0,92,0.00,CLR,OVC,0.00,WeatherDisplay:10.37,2013-06-17 01:33:00,
2013-06-16 21:38:00,73.0,70.5,29.26,NNW,337,0.0,0.0,92,0.00,CLR,OVC,0.00,WeatherDisplay:10.37,2013-06-17 01:38:00,
2013-06-16 21:43:00,73.0,71.2,29.26,NW,315,0.0,0.0,94,0.00,CLR,OVC,0.00,WeatherDisplay:10.37,2013-06-17 01:43:00,
2013-06-16 21:48:00,73.0,71.2,29.26,NW,315,0.0,0.0,94,0.00,CLR,OVC,0.00,WeatherDisplay:10.37,2013-06-17 01:48:00,
2013-06-16 21:53:00,73.0,70.9,29.27,NW,315,0.0,0.0,93,0.00,CLR,OVC,0.00,WeatherDisplay:10.37,2013-06-17 01:53:00,
2013-06-16 21:58:00,73.0,70.9,29.27,NW,315,0.0,0.0,93,0.00,CLR,OVC,0.00,WeatherDisplay:10.37,2013-06-17 01:58:00,
2013-06-16 22:03:00,73.0,71.2,29.27,NNW,337,0.0,0.0,94,0.00,CLR,OVC,0.00,WeatherDisplay:10.37,2013-06-17 02:03:00,
2013-06-16 22:08:00,73.0,70.9,29.27,NNW,337,0.0,0.0,93,0.00,CLR,OVC,0.00,WeatherDisplay:10.37,2013-06-17 02:08:00,
2013-06-16 22:13:00,73.0,70.9,29.27,NNW,337,0.0,0.0,93,0.00,CLR,OVC,0.00,WeatherDisplay:10.37,2013-06-17 02:13:00,
2013-06-16 22:18:00,73.0,71.2,29.27,NNW,337,0.0,0.0,94,0.00,CLR,OVC,0.00,WeatherDisplay:10.37,2013-06-17 02:18:00,
2013-06-16 22:23:00,73.0,71.2,29.28,North,360,0.0,0.0,94,0.00,CLR,OVC,0.00,WeatherDisplay:10.37,2013-06-17 02:23:00,
2013-06-16 22:28:00,73.0,71.2,29.28,North,360,0.0,0.0,94,0.00,CLR,OVC,0.00,WeatherDisplay:10.37,2013-06-17 02:28:00,
2013-06-16 22:33:00,73.0,70.9,29.27,North,360,0.0,0.0,93,0.00,CLR,OVC,0.00,WeatherDisplay:10.37,2013-06-17 02:33:00,
2013-06-16 22:38:00,73.0,71.2,29.27,North,360,0.0,0.0,94,0.00,CLR,OVC,0.00,WeatherDisplay:10.37,2013-06-17 02:38:00,
2013-06-16 22:43:00,73.0,71.5,29.27,North,360,0.0,0.0,95,0.00,CLR,OVC,0.00,WeatherDisplay:10.37,2013-06-17 02:43:00,
2013-06-16 22:48:00,72.0,70.8,29.27,North,360,0.0,0.0,96,0.00,CLR,OVC,0.00,WeatherDisplay:10.37,2013-06-17 02:48:00,
2013-06-16 22:53:00,72.0,70.8,29.27,North,360,0.0,0.0,96,0.00,CLR,OVC,0.00,WeatherDisplay:10.37,2013-06-17 02:53:00,
2013-06-16 22:58:00,72.0,70.8,29.27,NW,315,0.0,0.0,96,0.00,CLR,OVC,0.00,WeatherDisplay:10.37,2013-06-17 02:58:00,
2013-06-16 23:03:00,72.0,70.8,29.27,NW,315,0.0,0.0,96,0.00,CLR,OVC,0.00,WeatherDisplay:10.37,2013-06-17 03:03:00,
2013-06-16 23:08:00,72.0,70.8,29.27,NW,315,0.0,0.0,96,0.00,CLR,OVC,0.00,WeatherDisplay:10.37,2013-06-17 03:08:00,
2013-06-16 23:13:00,72.0,71.1,29.27,NW,315,0.0,0.0,97,0.00,CLR,OVC,0.00,WeatherDisplay:10.37,2013-06-17 03:13:00,
2013-06-16 23:18:00,72.0,71.4,29.27,NW,315,0.0,0.0,98,0.00,CLR,OVC,0.00,WeatherDisplay:10.37,2013-06-17 03:18:00,
2013-06-16 23:23:00,72.0,71.1,29.27,NW,315,0.0,0.0,97,0.00,CLR,OVC,0.00,WeatherDisplay:10.37,2013-06-17 03:23:00,
2013-06-16 23:28:00,72.0,71.1,29.27,NW,315,0.0,0.0,97,0.00,CLR,OVC,0.00,WeatherDisplay:10.37,2013-06-17 03:28:00,
2013-06-16 23:33:00,72.0,70.8,29.27,WNW,292,0.0,0.0,96,0.00,CLR,OVC,0.00,WeatherDisplay:10.37,2013-06-17 03:33:00,
2013-06-16 23:38:00,72.0,70.5,29.27,SSW,202,0.0,0.0,95,0.00,CLR,OVC,0.00,WeatherDisplay:10.37,2013-06-17 03:38:00,
2013-06-16 23:43:00,72.0,70.2,29.27,NW,315,0.0,0.0,94,0.00,CLR,OVC,0.00,WeatherDisplay:10.37,2013-06-17 03:43:00,
2013-06-16 23:48:00,72.0,70.2,29.27,West,270,1.2,1.2,94,0.00,CLR,OVC,0.00,WeatherDisplay:10.37,2013-06-17 03:48:00,
2013-06-16 23:53:00,72.0,70.2,29.27,NW,315,0.0,0.0,94,0.00,CLR,OVC,0.00,WeatherDisplay:10.37,2013-06-17 03:53:00,
2013-06-16 23:58:00,72.0,70.2,29.27,NW,315,0.0,0.0,94,0.00,CLR,OVC,0.00,WeatherDisplay:10.37,2013-06-17 03:58:00,